owner,sensor,date,latitude,longitude,vertical_datum,sea_water_practical_salinity,qcFlag 
DISL,ioos:station:DISL:BSCA:1,2019-04-01T00:00:00Z,30.3288,-87.8293,1.8,8.4,11111222 
DISL,ioos:station:DISL:BSCA:1,2019-04-01T00:30:00Z,30.3288,-87.8293,1.8,8.5,11111222 
DISL,ioos:station:DISL:BSCA:1,2019-04-01T01:00:00Z,30.3288,-87.8293,1.8,8.9,11111222 
DISL,ioos:station:DISL:BSCA:1,2019-04-01T01:30:00Z,30.3288,-87.8293,1.8,9.1,11111222 
DISL,ioos:station:DISL:BSCA:1,2019-04-01T02:00:00Z,30.3288,-87.8293,1.8,9.4,11111222 
DISL,ioos:station:DISL:BSCA:1,2019-04-01T02:30:00Z,30.3288,-87.8293,1.8,9.5,11111222 
DISL,ioos:station:DISL:BSCA:1,2019-04-01T03:00:00Z,30.3288,-87.8293,1.8,9.1,11111222 
DISL,ioos:station:DISL:BSCA:1,2019-04-01T03:30:00Z,30.3288,-87.8293,1.8,9.2,11111222 
DISL,ioos:station:DISL:BSCA:1,2019-04-01T04:00:00Z,30.3288,-87.8293,1.7,9.1,11111222 
DISL,ioos:station:DISL:BSCA:1,2019-04-01T04:30:00Z,30.3288,-87.8293,1.7,9.0,11111222 
DISL,ioos:station:DISL:BSCA:1,2019-04-01T05:00:00Z,30.3288,-87.8293,1.7,9.2,11111222 
DISL,ioos:station:DISL:BSCA:1,2019-04-01T05:30:00Z,30.3288,-87.8293,1.7,9.3,11111222 
DISL,ioos:station:DISL:BSCA:1,2019-04-01T06:00:00Z,30.3288,-87.8293,1.7,9.3,11111222 
DISL,ioos:station:DISL:BSCA:1,2019-04-01T06:30:00Z,30.3288,-87.8293,1.7,9.4,11111222 
DISL,ioos:station:DISL:BSCA:1,2019-04-01T07:00:00Z,30.3288,-87.8293,1.7,9.4,11111222 
DISL,ioos:station:DISL:BSCA:1,2019-04-01T07:30:00Z,30.3288,-87.8293,1.6,9.0,11111222 
DISL,ioos:station:DISL:BSCA:1,2019-04-01T08:00:00Z,30.3288,-87.8293,1.6,9.1,11111222 
DISL,ioos:station:DISL:BSCA:1,2019-04-01T08:30:00Z,30.3288,-87.8293,1.5,9.0,11111222 
DISL,ioos:station:DISL:BSCA:1,2019-04-01T09:00:00Z,30.3288,-87.8293,1.5,8.9,11111222 
DISL,ioos:station:DISL:BSCA:1,2019-04-01T09:30:00Z,30.3288,-87.8293,1.5,8.9,11111222 
DISL,ioos:station:DISL:BSCA:1,2019-04-01T10:00:00Z,30.3288,-87.8293,1.5,9.0,11111222 
DISL,ioos:station:DISL:BSCA:1,2019-04-01T10:30:00Z,30.3288,-87.8293,1.5,9.0,11111222 
DISL,ioos:station:DISL:BSCA:1,2019-04-01T11:00:00Z,30.3288,-87.8293,1.5,9.0,11111222 
DISL,ioos:station:DISL:BSCA:1,2019-04-01T11:30:00Z,30.3288,-87.8293,1.5,9.1,11111222 
DISL,ioos:station:DISL:BSCA:1,2019-04-01T12:00:00Z,30.3288,-87.8293,1.5,9.2,11111222 
DISL,ioos:station:DISL:BSCA:1,2019-04-01T12:30:00Z,30.3288,-87.8293,1.5,9.2,11111222 
DISL,ioos:station:DISL:BSCA:1,2019-04-01T13:00:00Z,30.3288,-87.8293,1.5,9.3,11111222 
DISL,ioos:station:DISL:BSCA:1,2019-04-01T13:30:00Z,30.3288,-87.8293,1.5,9.4,11111222 
DISL,ioos:station:DISL:BSCA:1,2019-04-01T14:00:00Z,30.3288,-87.8293,1.5,9.4,11111222 
DISL,ioos:station:DISL:BSCA:1,2019-04-01T14:30:00Z,30.3288,-87.8293,1.5,9.4,11111222 
DISL,ioos:station:DISL:BSCA:1,2019-04-01T15:00:00Z,30.3288,-87.8293,1.5,9.3,11111222 
DISL,ioos:station:DISL:BSCA:1,2019-04-01T15:30:00Z,30.3288,-87.8293,1.6,9.5,11111222 
DISL,ioos:station:DISL:BSCA:1,2019-04-01T16:00:00Z,30.3288,-87.8293,1.6,9.9,11111222 
DISL,ioos:station:DISL:BSCA:1,2019-04-01T16:30:00Z,30.3288,-87.8293,1.6,10.0,11111222 
DISL,ioos:station:DISL:BSCA:1,2019-04-01T17:00:00Z,30.3288,-87.8293,1.7,10.1,11111222 
DISL,ioos:station:DISL:BSCA:1,2019-04-01T17:30:00Z,30.3288,-87.8293,1.7,10.0,11111222 
DISL,ioos:station:DISL:BSCA:1,2019-04-01T18:00:00Z,30.3288,-87.8293,1.7,10.1,11111222 
DISL,ioos:station:DISL:BSCA:1,2019-04-01T18:30:00Z,30.3288,-87.8293,1.8,10.3,11111222 
DISL,ioos:station:DISL:BSCA:1,2019-04-01T19:00:00Z,30.3288,-87.8293,1.8,11.3,11111222 
DISL,ioos:station:DISL:BSCA:1,2019-04-01T19:30:00Z,30.3288,-87.8293,1.8,11.0,11111222 
DISL,ioos:station:DISL:BSCA:1,2019-04-01T20:00:00Z,30.3288,-87.8293,1.8,10.5,11111222 
DISL,ioos:station:DISL:BSCA:1,2019-04-01T20:30:00Z,30.3288,-87.8293,1.8,10.3,11111222 
DISL,ioos:station:DISL:BSCA:1,2019-04-01T21:00:00Z,30.3288,-87.8293,1.8,10.1,11111222 
DISL,ioos:station:DISL:BSCA:1,2019-04-01T21:30:00Z,30.3288,-87.8293,1.8,10.0,11111222 
DISL,ioos:station:DISL:BSCA:1,2019-04-01T22:00:00Z,30.3288,-87.8293,1.8,10.0,11111222 
DISL,ioos:station:DISL:BSCA:1,2019-04-01T22:30:00Z,30.3288,-87.8293,1.8,10.2,11111222 
DISL,ioos:station:DISL:BSCA:1,2019-04-01T23:00:00Z,30.3288,-87.8293,1.8,10.3,11111222 
DISL,ioos:station:DISL:BSCA:1,2019-04-01T23:30:00Z,30.3288,-87.8293,1.9,9.9,11111222 
DISL,ioos:station:DISL:BSCA:1,2019-04-02T00:00:00Z,30.3288,-87.8293,1.9,9.9,11111222 
DISL,ioos:station:DISL:BSCA:1,2019-04-02T00:30:00Z,30.3288,-87.8293,1.9,10.4,11111222 
DISL,ioos:station:DISL:BSCA:1,2019-04-02T01:00:00Z,30.3288,-87.8293,1.9,10.4,11111222 
DISL,ioos:station:DISL:BSCA:1,2019-04-02T01:30:00Z,30.3288,-87.8293,1.9,10.4,11111222 
DISL,ioos:station:DISL:BSCA:1,2019-04-02T02:00:00Z,30.3288,-87.8293,1.9,10.8,11111222 
DISL,ioos:station:DISL:BSCA:1,2019-04-02T02:30:00Z,30.3288,-87.8293,1.9,10.5,11111222 
DISL,ioos:station:DISL:BSCA:1,2019-04-02T03:00:00Z,30.3288,-87.8293,1.9,10.5,11111222 
DISL,ioos:station:DISL:BSCA:1,2019-04-02T03:30:00Z,30.3288,-87.8293,1.9,10.5,11111222 
DISL,ioos:station:DISL:BSCA:1,2019-04-02T04:00:00Z,30.3288,-87.8293,2.0,10.3,11111222 
DISL,ioos:station:DISL:BSCA:1,2019-04-02T04:30:00Z,30.3288,-87.8293,1.9,10.4,11111222 
DISL,ioos:station:DISL:BSCA:1,2019-04-02T05:00:00Z,30.3288,-87.8293,1.9,10.4,11111222 
DISL,ioos:station:DISL:BSCA:1,2019-04-02T05:30:00Z,30.3288,-87.8293,1.9,10.7,11111222 
DISL,ioos:station:DISL:BSCA:1,2019-04-02T06:00:00Z,30.3288,-87.8293,1.8,10.6,11111222 
DISL,ioos:station:DISL:BSCA:1,2019-04-02T06:30:00Z,30.3288,-87.8293,1.8,10.2,11111222 
DISL,ioos:station:DISL:BSCA:1,2019-04-02T07:00:00Z,30.3288,-87.8293,1.7,10.0,11111222 
DISL,ioos:station:DISL:BSCA:1,2019-04-02T07:30:00Z,30.3288,-87.8293,1.7,9.7,11111222 
DISL,ioos:station:DISL:BSCA:1,2019-04-02T08:00:00Z,30.3288,-87.8293,1.7,9.9,11111222 
DISL,ioos:station:DISL:BSCA:1,2019-04-02T08:30:00Z,30.3288,-87.8293,1.7,10.1,11111222 
DISL,ioos:station:DISL:BSCA:1,2019-04-02T09:00:00Z,30.3288,-87.8293,1.7,11.1,11111222 
DISL,ioos:station:DISL:BSCA:1,2019-04-02T09:30:00Z,30.3288,-87.8293,1.7,10.3,11111222 
DISL,ioos:station:DISL:BSCA:1,2019-04-02T10:00:00Z,30.3288,-87.8293,1.6,10.9,11111222 
DISL,ioos:station:DISL:BSCA:1,2019-04-02T10:30:00Z,30.3288,-87.8293,1.6,11.3,11111222 
DISL,ioos:station:DISL:BSCA:1,2019-04-02T11:00:00Z,30.3288,-87.8293,1.6,11.4,11111222 
DISL,ioos:station:DISL:BSCA:1,2019-04-02T11:30:00Z,30.3288,-87.8293,1.6,10.8,11111222 
DISL,ioos:station:DISL:BSCA:1,2019-04-02T12:00:00Z,30.3288,-87.8293,1.6,10.2,11111222 
DISL,ioos:station:DISL:BSCA:1,2019-04-02T12:30:00Z,30.3288,-87.8293,1.6,10.4,11111222 
DISL,ioos:station:DISL:BSCA:1,2019-04-02T13:00:00Z,30.3288,-87.8293,1.6,9.3,11111222 
DISL,ioos:station:DISL:BSCA:1,2019-04-02T13:30:00Z,30.3288,-87.8293,1.6,9.0,11111222 
DISL,ioos:station:DISL:BSCA:1,2019-04-02T14:00:00Z,30.3288,-87.8293,1.6,9.8,11111222 
DISL,ioos:station:DISL:BSCA:1,2019-04-02T14:30:00Z,30.3288,-87.8293,1.6,10.3,11111222 
DISL,ioos:station:DISL:BSCA:1,2019-04-02T15:00:00Z,30.3288,-87.8293,1.6,9.1,11111222 
DISL,ioos:station:DISL:BSCA:1,2019-04-02T15:30:00Z,30.3288,-87.8293,1.6,9.3,11111222 
DISL,ioos:station:DISL:BSCA:1,2019-04-02T16:00:00Z,30.3288,-87.8293,1.7,10.4,11111222 
DISL,ioos:station:DISL:BSCA:1,2019-04-02T16:30:00Z,30.3288,-87.8293,1.7,10.5,11111222 
DISL,ioos:station:DISL:BSCA:1,2019-04-02T17:00:00Z,30.3288,-87.8293,1.7,10.1,11111222 
DISL,ioos:station:DISL:BSCA:1,2019-04-02T17:30:00Z,30.3288,-87.8293,1.7,10.0,11111222 
DISL,ioos:station:DISL:BSCA:1,2019-04-02T18:00:00Z,30.3288,-87.8293,1.7,9.4,11111222 
DISL,ioos:station:DISL:BSCA:1,2019-04-02T18:30:00Z,30.3288,-87.8293,1.7,9.4,11111222 
DISL,ioos:station:DISL:BSCA:1,2019-04-02T19:00:00Z,30.3288,-87.8293,1.7,9.6,11111222 
DISL,ioos:station:DISL:BSCA:1,2019-04-02T19:30:00Z,30.3288,-87.8293,1.7,9.6,11111222 
DISL,ioos:station:DISL:BSCA:1,2019-04-02T20:00:00Z,30.3288,-87.8293,1.8,9.7,11111222 
DISL,ioos:station:DISL:BSCA:1,2019-04-02T20:30:00Z,30.3288,-87.8293,1.8,9.6,11111222 
DISL,ioos:station:DISL:BSCA:1,2019-04-02T21:00:00Z,30.3288,-87.8293,1.8,9.7,11111222 
DISL,ioos:station:DISL:BSCA:1,2019-04-02T21:30:00Z,30.3288,-87.8293,1.8,9.4,11111222 
DISL,ioos:station:DISL:BSCA:1,2019-04-02T22:00:00Z,30.3288,-87.8293,1.8,8.8,11111222 
DISL,ioos:station:DISL:BSCA:1,2019-04-02T22:30:00Z,30.3288,-87.8293,1.8,8.8,11111222 
DISL,ioos:station:DISL:BSCA:1,2019-04-02T23:00:00Z,30.3288,-87.8293,1.8,8.9,11111222 
DISL,ioos:station:DISL:BSCA:1,2019-04-02T23:30:00Z,30.3288,-87.8293,1.8,9.1,11111222 
DISL,ioos:station:DISL:BSCA:1,2019-04-03T00:00:00Z,30.3288,-87.8293,1.9,8.9,11111222 
DISL,ioos:station:DISL:BSCA:1,2019-04-03T00:30:00Z,30.3288,-87.8293,1.8,8.8,11111222 
DISL,ioos:station:DISL:BSCA:1,2019-04-03T01:00:00Z,30.3288,-87.8293,1.9,8.8,11111222 
DISL,ioos:station:DISL:BSCA:1,2019-04-03T01:30:00Z,30.3288,-87.8293,1.9,8.8,11111222 
DISL,ioos:station:DISL:BSCA:1,2019-04-03T02:00:00Z,30.3288,-87.8293,1.9,8.8,11111222 
DISL,ioos:station:DISL:BSCA:1,2019-04-03T02:30:00Z,30.3288,-87.8293,1.9,8.8,11111222 
DISL,ioos:station:DISL:BSCA:1,2019-04-03T03:00:00Z,30.3288,-87.8293,1.9,8.9,11111222 
DISL,ioos:station:DISL:BSCA:1,2019-04-03T03:30:00Z,30.3288,-87.8293,1.8,8.9,11111222 
DISL,ioos:station:DISL:BSCA:1,2019-04-03T04:00:00Z,30.3288,-87.8293,1.9,8.9,11111222 
DISL,ioos:station:DISL:BSCA:1,2019-04-03T04:30:00Z,30.3288,-87.8293,1.8,8.9,11111222 
DISL,ioos:station:DISL:BSCA:1,2019-04-03T05:00:00Z,30.3288,-87.8293,1.8,8.9,11111222 
DISL,ioos:station:DISL:BSCA:1,2019-04-03T05:30:00Z,30.3288,-87.8293,1.8,8.9,11111222 
DISL,ioos:station:DISL:BSCA:1,2019-04-03T06:00:00Z,30.3288,-87.8293,1.7,8.9,11111222 
DISL,ioos:station:DISL:BSCA:1,2019-04-03T06:30:00Z,30.3288,-87.8293,1.7,8.9,11111222 
DISL,ioos:station:DISL:BSCA:1,2019-04-03T07:00:00Z,30.3288,-87.8293,1.7,8.9,11111222 
DISL,ioos:station:DISL:BSCA:1,2019-04-03T07:30:00Z,30.3288,-87.8293,1.7,8.9,11111222 
DISL,ioos:station:DISL:BSCA:1,2019-04-03T08:00:00Z,30.3288,-87.8293,1.6,8.9,11111222 
DISL,ioos:station:DISL:BSCA:1,2019-04-03T08:30:00Z,30.3288,-87.8293,1.6,9.1,11111222 
DISL,ioos:station:DISL:BSCA:1,2019-04-03T09:00:00Z,30.3288,-87.8293,1.6,9.1,11111222 
DISL,ioos:station:DISL:BSCA:1,2019-04-03T09:30:00Z,30.3288,-87.8293,1.6,9.1,11111222 
DISL,ioos:station:DISL:BSCA:1,2019-04-03T10:00:00Z,30.3288,-87.8293,1.6,9.0,11111222 
DISL,ioos:station:DISL:BSCA:1,2019-04-03T10:30:00Z,30.3288,-87.8293,1.5,9.0,11111222 
DISL,ioos:station:DISL:BSCA:1,2019-04-03T11:00:00Z,30.3288,-87.8293,1.5,9.1,11111222 
DISL,ioos:station:DISL:BSCA:1,2019-04-03T11:30:00Z,30.3288,-87.8293,1.5,9.1,11111222 
DISL,ioos:station:DISL:BSCA:1,2019-04-03T12:00:00Z,30.3288,-87.8293,1.5,9.1,11111222 
DISL,ioos:station:DISL:BSCA:1,2019-04-03T12:30:00Z,30.3288,-87.8293,1.5,9.1,11111222 
DISL,ioos:station:DISL:BSCA:1,2019-04-03T13:00:00Z,30.3288,-87.8293,1.5,9.1,11111222 
DISL,ioos:station:DISL:BSCA:1,2019-04-03T13:30:00Z,30.3288,-87.8293,1.5,9.2,11111222 
DISL,ioos:station:DISL:BSCA:1,2019-04-03T14:00:00Z,30.3288,-87.8293,1.6,9.2,11111222 
DISL,ioos:station:DISL:BSCA:1,2019-04-03T14:30:00Z,30.3288,-87.8293,1.6,9.2,11111222 
DISL,ioos:station:DISL:BSCA:1,2019-04-03T15:00:00Z,30.3288,-87.8293,1.6,9.2,11111222 
DISL,ioos:station:DISL:BSCA:1,2019-04-03T15:30:00Z,30.3288,-87.8293,1.6,9.3,11111222 
DISL,ioos:station:DISL:BSCA:1,2019-04-03T16:00:00Z,30.3288,-87.8293,1.6,9.3,11111222 
DISL,ioos:station:DISL:BSCA:1,2019-04-03T16:30:00Z,30.3288,-87.8293,1.7,9.3,11111222 
DISL,ioos:station:DISL:BSCA:1,2019-04-03T17:00:00Z,30.3288,-87.8293,1.7,9.3,11111222 
DISL,ioos:station:DISL:BSCA:1,2019-04-03T17:30:00Z,30.3288,-87.8293,1.7,9.4,11111222 
DISL,ioos:station:DISL:BSCA:1,2019-04-03T18:00:00Z,30.3288,-87.8293,1.7,9.4,11111222 
DISL,ioos:station:DISL:BSCA:1,2019-04-03T18:30:00Z,30.3288,-87.8293,1.7,9.4,11111222 
DISL,ioos:station:DISL:BSCA:1,2019-04-03T19:00:00Z,30.3288,-87.8293,1.7,9.3,11111222 
DISL,ioos:station:DISL:BSCA:1,2019-04-03T19:30:00Z,30.3288,-87.8293,1.7,9.3,11111222 
DISL,ioos:station:DISL:BSCA:1,2019-04-03T20:00:00Z,30.3288,-87.8293,1.7,9.3,11111222 
DISL,ioos:station:DISL:BSCA:1,2019-04-03T20:30:00Z,30.3288,-87.8293,1.7,9.3,11111222 
DISL,ioos:station:DISL:BSCA:1,2019-04-03T21:00:00Z,30.3288,-87.8293,1.6,9.3,11111222 
DISL,ioos:station:DISL:BSCA:1,2019-04-03T21:30:00Z,30.3288,-87.8293,1.6,9.3,11111222 
DISL,ioos:station:DISL:BSCA:1,2019-04-03T22:00:00Z,30.3288,-87.8293,1.6,9.3,11111222 
DISL,ioos:station:DISL:BSCA:1,2019-04-03T22:30:00Z,30.3288,-87.8293,1.6,9.3,11111222 
DISL,ioos:station:DISL:BSCA:1,2019-04-03T23:00:00Z,30.3288,-87.8293,1.6,9.3,11111222 
DISL,ioos:station:DISL:BSCA:1,2019-04-03T23:30:00Z,30.3288,-87.8293,1.7,9.3,11111222 
DISL,ioos:station:DISL:BSCA:1,2019-04-04T00:00:00Z,30.3288,-87.8293,1.7,9.3,11111222 
DISL,ioos:station:DISL:BSCA:1,2019-04-04T00:30:00Z,30.3288,-87.8293,1.7,9.3,11111222 
DISL,ioos:station:DISL:BSCA:1,2019-04-04T01:00:00Z,30.3288,-87.8293,1.7,9.3,11111222 
DISL,ioos:station:DISL:BSCA:1,2019-04-04T01:30:00Z,30.3288,-87.8293,1.8,9.5,11111222 
DISL,ioos:station:DISL:BSCA:1,2019-04-04T02:00:00Z,30.3288,-87.8293,1.8,9.5,11111222 
DISL,ioos:station:DISL:BSCA:1,2019-04-04T02:30:00Z,30.3288,-87.8293,1.8,9.5,11111222 
DISL,ioos:station:DISL:BSCA:1,2019-04-04T03:00:00Z,30.3288,-87.8293,1.8,9.6,11111222 
DISL,ioos:station:DISL:BSCA:1,2019-04-04T03:30:00Z,30.3288,-87.8293,1.8,9.5,11111222 
DISL,ioos:station:DISL:BSCA:1,2019-04-04T04:00:00Z,30.3288,-87.8293,1.8,9.6,11111222 
DISL,ioos:station:DISL:BSCA:1,2019-04-04T04:30:00Z,30.3288,-87.8293,1.8,9.5,11111222 
DISL,ioos:station:DISL:BSCA:1,2019-04-04T05:00:00Z,30.3288,-87.8293,1.8,9.5,11111222 
DISL,ioos:station:DISL:BSCA:1,2019-04-04T05:30:00Z,30.3288,-87.8293,1.8,9.6,11111222 
DISL,ioos:station:DISL:BSCA:1,2019-04-04T06:00:00Z,30.3288,-87.8293,1.8,9.6,11111222 
DISL,ioos:station:DISL:BSCA:1,2019-04-04T06:30:00Z,30.3288,-87.8293,1.8,9.6,11111222 
DISL,ioos:station:DISL:BSCA:1,2019-04-04T07:00:00Z,30.3288,-87.8293,1.8,9.5,11111222 
DISL,ioos:station:DISL:BSCA:1,2019-04-04T07:30:00Z,30.3288,-87.8293,1.8,9.5,11111222 
DISL,ioos:station:DISL:BSCA:1,2019-04-04T08:00:00Z,30.3288,-87.8293,1.8,9.5,11111222 
DISL,ioos:station:DISL:BSCA:1,2019-04-04T08:30:00Z,30.3288,-87.8293,1.7,9.4,11111222 
DISL,ioos:station:DISL:BSCA:1,2019-04-04T09:00:00Z,30.3288,-87.8293,1.7,9.2,11111222 
DISL,ioos:station:DISL:BSCA:1,2019-04-04T09:30:00Z,30.3288,-87.8293,1.7,9.4,11111222 
DISL,ioos:station:DISL:BSCA:1,2019-04-04T10:00:00Z,30.3288,-87.8293,1.7,9.7,11111222 
DISL,ioos:station:DISL:BSCA:1,2019-04-04T10:30:00Z,30.3288,-87.8293,1.6,9.7,11111222 
DISL,ioos:station:DISL:BSCA:1,2019-04-04T11:00:00Z,30.3288,-87.8293,1.6,9.5,11111222 
DISL,ioos:station:DISL:BSCA:1,2019-04-04T11:30:00Z,30.3288,-87.8293,1.6,9.4,11111222 
DISL,ioos:station:DISL:BSCA:1,2019-04-04T12:00:00Z,30.3288,-87.8293,1.6,9.4,11111222 
DISL,ioos:station:DISL:BSCA:1,2019-04-04T12:30:00Z,30.3288,-87.8293,1.6,9.8,11111222 
DISL,ioos:station:DISL:BSCA:1,2019-04-04T13:00:00Z,30.3288,-87.8293,1.6,9.6,11111222 
DISL,ioos:station:DISL:BSCA:1,2019-04-04T13:30:00Z,30.3288,-87.8293,1.6,9.5,11111222 
DISL,ioos:station:DISL:BSCA:1,2019-04-04T14:00:00Z,30.3288,-87.8293,1.6,9.5,11111222 
DISL,ioos:station:DISL:BSCA:1,2019-04-04T14:30:00Z,30.3288,-87.8293,1.6,9.5,11111222 
DISL,ioos:station:DISL:BSCA:1,2019-04-04T15:00:00Z,30.3288,-87.8293,1.6,9.6,11111222 
DISL,ioos:station:DISL:BSCA:1,2019-04-04T15:30:00Z,30.3288,-87.8293,1.7,9.6,11111222 
DISL,ioos:station:DISL:BSCA:1,2019-04-04T16:00:00Z,30.3288,-87.8293,1.7,9.7,11111222 
DISL,ioos:station:DISL:BSCA:1,2019-04-04T16:30:00Z,30.3288,-87.8293,1.8,10.0,11111222 
DISL,ioos:station:DISL:BSCA:1,2019-04-04T17:00:00Z,30.3288,-87.8293,1.9,10.1,11111222 
DISL,ioos:station:DISL:BSCA:1,2019-04-04T17:30:00Z,30.3288,-87.8293,1.9,10.0,11111222 
DISL,ioos:station:DISL:BSCA:1,2019-04-04T18:00:00Z,30.3288,-87.8293,1.8,9.9,11111222 
DISL,ioos:station:DISL:BSCA:1,2019-04-04T18:30:00Z,30.3288,-87.8293,1.8,10.0,11111222 
DISL,ioos:station:DISL:BSCA:1,2019-04-04T19:00:00Z,30.3288,-87.8293,1.8,10.0,11111222 
DISL,ioos:station:DISL:BSCA:1,2019-04-04T19:30:00Z,30.3288,-87.8293,1.8,9.9,11111222 
DISL,ioos:station:DISL:BSCA:1,2019-04-04T20:00:00Z,30.3288,-87.8293,1.7,9.8,11111222 
DISL,ioos:station:DISL:BSCA:1,2019-04-04T20:30:00Z,30.3288,-87.8293,1.7,9.8,11111222 
DISL,ioos:station:DISL:BSCA:1,2019-04-04T21:00:00Z,30.3288,-87.8293,1.7,9.9,11111222 
DISL,ioos:station:DISL:BSCA:1,2019-04-04T21:30:00Z,30.3288,-87.8293,1.7,10.0,11111222 
DISL,ioos:station:DISL:BSCA:1,2019-04-04T22:00:00Z,30.3288,-87.8293,1.7,10.1,11111222 
DISL,ioos:station:DISL:BSCA:1,2019-04-04T22:30:00Z,30.3288,-87.8293,1.6,10.0,11111222 
DISL,ioos:station:DISL:BSCA:1,2019-04-04T23:00:00Z,30.3288,-87.8293,1.6,9.9,11111222 
DISL,ioos:station:DISL:BSCA:1,2019-04-04T23:30:00Z,30.3288,-87.8293,1.6,9.7,11111222 
DISL,ioos:station:DISL:BSCA:1,2019-04-05T00:00:00Z,30.3288,-87.8293,1.5,9.8,11111222 
DISL,ioos:station:DISL:BSCA:1,2019-04-05T00:30:00Z,30.3288,-87.8293,1.4,9.7,11111222 
DISL,ioos:station:DISL:BSCA:1,2019-04-05T01:00:00Z,30.3288,-87.8293,1.5,9.8,11111222 
DISL,ioos:station:DISL:BSCA:1,2019-04-05T01:30:00Z,30.3288,-87.8293,1.6,11.2,11111222 
DISL,ioos:station:DISL:BSCA:1,2019-04-05T02:00:00Z,30.3288,-87.8293,1.7,11.2,11111222 
DISL,ioos:station:DISL:BSCA:1,2019-04-05T02:30:00Z,30.3288,-87.8293,1.8,11.3,11111222 
DISL,ioos:station:DISL:BSCA:1,2019-04-05T03:00:00Z,30.3288,-87.8293,1.9,12.3,11111222 
DISL,ioos:station:DISL:BSCA:1,2019-04-05T03:30:00Z,30.3288,-87.8293,2.0,12.5,11111222 
DISL,ioos:station:DISL:BSCA:1,2019-04-05T04:00:00Z,30.3288,-87.8293,1.9,13.3,11111222 
DISL,ioos:station:DISL:BSCA:1,2019-04-05T04:30:00Z,30.3288,-87.8293,1.9,12.2,11111222 
DISL,ioos:station:DISL:BSCA:1,2019-04-05T05:00:00Z,30.3288,-87.8293,1.8,10.6,11111222 
DISL,ioos:station:DISL:BSCA:1,2019-04-05T05:30:00Z,30.3288,-87.8293,1.8,10.3,11111222 
DISL,ioos:station:DISL:BSCA:1,2019-04-05T06:00:00Z,30.3288,-87.8293,1.8,10.3,11111222 
DISL,ioos:station:DISL:BSCA:1,2019-04-05T06:30:00Z,30.3288,-87.8293,1.8,10.5,11111222 
DISL,ioos:station:DISL:BSCA:1,2019-04-05T07:00:00Z,30.3288,-87.8293,1.8,12.4,11111222 
DISL,ioos:station:DISL:BSCA:1,2019-04-05T07:30:00Z,30.3288,-87.8293,1.9,11.7,11111222 
DISL,ioos:station:DISL:BSCA:1,2019-04-05T08:00:00Z,30.3288,-87.8293,1.9,13.4,11111222 
DISL,ioos:station:DISL:BSCA:1,2019-04-05T08:30:00Z,30.3288,-87.8293,1.9,13.3,11111222 
DISL,ioos:station:DISL:BSCA:1,2019-04-05T09:00:00Z,30.3288,-87.8293,1.9,13.6,11111222 
DISL,ioos:station:DISL:BSCA:1,2019-04-05T09:30:00Z,30.3288,-87.8293,1.8,12.8,11111222 
DISL,ioos:station:DISL:BSCA:1,2019-04-05T10:00:00Z,30.3288,-87.8293,1.9,13.3,11111222 
DISL,ioos:station:DISL:BSCA:1,2019-04-05T10:30:00Z,30.3288,-87.8293,1.8,12.4,11111222 
DISL,ioos:station:DISL:BSCA:1,2019-04-05T11:00:00Z,30.3288,-87.8293,1.8,11.8,11111222 
DISL,ioos:station:DISL:BSCA:1,2019-04-05T11:30:00Z,30.3288,-87.8293,1.8,12.1,11111222 
DISL,ioos:station:DISL:BSCA:1,2019-04-05T12:00:00Z,30.3288,-87.8293,1.8,11.2,11111222 
DISL,ioos:station:DISL:BSCA:1,2019-04-05T12:30:00Z,30.3288,-87.8293,1.8,11.9,11111222 
DISL,ioos:station:DISL:BSCA:1,2019-04-05T13:00:00Z,30.3288,-87.8293,1.8,12.0,11111222 
DISL,ioos:station:DISL:BSCA:1,2019-04-05T13:30:00Z,30.3288,-87.8293,1.8,14.0,11111222 
DISL,ioos:station:DISL:BSCA:1,2019-04-05T14:00:00Z,30.3288,-87.8293,1.8,14.7,11111222 
DISL,ioos:station:DISL:BSCA:1,2019-04-05T14:30:00Z,30.3288,-87.8293,1.8,13.7,11111222 
DISL,ioos:station:DISL:BSCA:1,2019-04-05T15:00:00Z,30.3288,-87.8293,1.8,14.7,11111222 
DISL,ioos:station:DISL:BSCA:1,2019-04-05T15:30:00Z,30.3288,-87.8293,1.9,14.5,11111222 
DISL,ioos:station:DISL:BSCA:1,2019-04-05T16:00:00Z,30.3288,-87.8293,1.8,15.1,11111222 
DISL,ioos:station:DISL:BSCA:1,2019-04-05T16:30:00Z,30.3288,-87.8293,1.9,13.7,11111222 
DISL,ioos:station:DISL:BSCA:1,2019-04-05T17:00:00Z,30.3288,-87.8293,1.8,15.5,11111222 
DISL,ioos:station:DISL:BSCA:1,2019-04-05T17:30:00Z,30.3288,-87.8293,1.9,14.9,11111222 
DISL,ioos:station:DISL:BSCA:1,2019-04-05T18:00:00Z,30.3288,-87.8293,1.9,14.9,11111222 
DISL,ioos:station:DISL:BSCA:1,2019-04-05T18:30:00Z,30.3288,-87.8293,1.9,15.9,11111222 
DISL,ioos:station:DISL:BSCA:1,2019-04-05T19:00:00Z,30.3288,-87.8293,1.8,16.2,11111222 
DISL,ioos:station:DISL:BSCA:1,2019-04-05T19:30:00Z,30.3288,-87.8293,1.8,16.1,11111222 
DISL,ioos:station:DISL:BSCA:1,2019-04-05T20:00:00Z,30.3288,-87.8293,1.8,13.6,11111222 
DISL,ioos:station:DISL:BSCA:1,2019-04-05T20:30:00Z,30.3288,-87.8293,1.8,13.4,11111222 
DISL,ioos:station:DISL:BSCA:1,2019-04-05T21:00:00Z,30.3288,-87.8293,1.8,13.6,11111222 
DISL,ioos:station:DISL:BSCA:1,2019-04-05T21:30:00Z,30.3288,-87.8293,1.8,14.2,11111222 
DISL,ioos:station:DISL:BSCA:1,2019-04-05T22:00:00Z,30.3288,-87.8293,1.7,14.4,11111222 
DISL,ioos:station:DISL:BSCA:1,2019-04-05T22:30:00Z,30.3288,-87.8293,1.7,13.9,11111222 
DISL,ioos:station:DISL:BSCA:1,2019-04-05T23:00:00Z,30.3288,-87.8293,1.7,14.3,11111222 
DISL,ioos:station:DISL:BSCA:1,2019-04-05T23:30:00Z,30.3288,-87.8293,1.7,14.0,11111222 
DISL,ioos:station:DISL:BSCA:1,2019-04-06T00:00:00Z,30.3288,-87.8293,1.6,14.6,11111222 
DISL,ioos:station:DISL:BSCA:1,2019-04-06T00:30:00Z,30.3288,-87.8293,1.7,13.4,11111222 
DISL,ioos:station:DISL:BSCA:1,2019-04-06T01:00:00Z,30.3288,-87.8293,1.7,13.7,11111222 
DISL,ioos:station:DISL:BSCA:1,2019-04-06T01:30:00Z,30.3288,-87.8293,1.7,14.9,11111222 
DISL,ioos:station:DISL:BSCA:1,2019-04-06T02:00:00Z,30.3288,-87.8293,1.7,15.5,11111222 
DISL,ioos:station:DISL:BSCA:1,2019-04-06T02:30:00Z,30.3288,-87.8293,1.7,15.8,11111222 
DISL,ioos:station:DISL:BSCA:1,2019-04-06T03:00:00Z,30.3288,-87.8293,1.8,16.1,11111222 
DISL,ioos:station:DISL:BSCA:1,2019-04-06T03:30:00Z,30.3288,-87.8293,1.8,13.0,11111222 
DISL,ioos:station:DISL:BSCA:1,2019-04-06T04:00:00Z,30.3288,-87.8293,1.8,11.8,11111222 
DISL,ioos:station:DISL:BSCA:1,2019-04-06T04:30:00Z,30.3288,-87.8293,1.8,13.1,11111222 
DISL,ioos:station:DISL:BSCA:1,2019-04-06T05:00:00Z,30.3288,-87.8293,1.8,12.1,11111222 
DISL,ioos:station:DISL:BSCA:1,2019-04-06T05:30:00Z,30.3288,-87.8293,1.9,13.0,11111222 
DISL,ioos:station:DISL:BSCA:1,2019-04-06T06:00:00Z,30.3288,-87.8293,1.9,11.9,11111222 
DISL,ioos:station:DISL:BSCA:1,2019-04-06T06:30:00Z,30.3288,-87.8293,1.9,11.8,11111222 
DISL,ioos:station:DISL:BSCA:1,2019-04-06T07:00:00Z,30.3288,-87.8293,1.9,11.7,11111222 
DISL,ioos:station:DISL:BSCA:1,2019-04-06T07:30:00Z,30.3288,-87.8293,2.0,11.8,11111222 
DISL,ioos:station:DISL:BSCA:1,2019-04-06T08:00:00Z,30.3288,-87.8293,1.9,12.0,11111222 
DISL,ioos:station:DISL:BSCA:1,2019-04-06T08:30:00Z,30.3288,-87.8293,1.9,12.1,11111222 
DISL,ioos:station:DISL:BSCA:1,2019-04-06T09:00:00Z,30.3288,-87.8293,1.9,12.3,11111222 
DISL,ioos:station:DISL:BSCA:1,2019-04-06T09:30:00Z,30.3288,-87.8293,1.9,11.7,11111222 
DISL,ioos:station:DISL:BSCA:1,2019-04-06T10:00:00Z,30.3288,-87.8293,1.9,12.3,11111222 
DISL,ioos:station:DISL:BSCA:1,2019-04-06T10:30:00Z,30.3288,-87.8293,1.9,12.0,11111222 
DISL,ioos:station:DISL:BSCA:1,2019-04-06T11:00:00Z,30.3288,-87.8293,1.8,12.0,11111222 
DISL,ioos:station:DISL:BSCA:1,2019-04-06T11:30:00Z,30.3288,-87.8293,1.8,12.0,11111222 
DISL,ioos:station:DISL:BSCA:1,2019-04-06T12:00:00Z,30.3288,-87.8293,1.8,12.3,11111222 
DISL,ioos:station:DISL:BSCA:1,2019-04-06T12:30:00Z,30.3288,-87.8293,1.8,11.9,11111222 
DISL,ioos:station:DISL:BSCA:1,2019-04-06T13:00:00Z,30.3288,-87.8293,1.8,13.0,11111222 
DISL,ioos:station:DISL:BSCA:1,2019-04-06T13:30:00Z,30.3288,-87.8293,1.8,13.2,11111222 
DISL,ioos:station:DISL:BSCA:1,2019-04-06T14:00:00Z,30.3288,-87.8293,1.8,13.9,11111222 
DISL,ioos:station:DISL:BSCA:1,2019-04-06T14:30:00Z,30.3288,-87.8293,1.8,14.4,11111222 
DISL,ioos:station:DISL:BSCA:1,2019-04-06T15:00:00Z,30.3288,-87.8293,1.8,13.6,11111222 
DISL,ioos:station:DISL:BSCA:1,2019-04-06T15:30:00Z,30.3288,-87.8293,1.9,14.6,11111222 
DISL,ioos:station:DISL:BSCA:1,2019-04-06T16:00:00Z,30.3288,-87.8293,1.8,14.8,11111222 
DISL,ioos:station:DISL:BSCA:1,2019-04-06T16:30:00Z,30.3288,-87.8293,1.8,14.3,11111222 
DISL,ioos:station:DISL:BSCA:1,2019-04-06T17:00:00Z,30.3288,-87.8293,1.8,14.0,11111222 
DISL,ioos:station:DISL:BSCA:1,2019-04-06T17:30:00Z,30.3288,-87.8293,1.8,14.8,11111222 